Tyler, TX

7:54 PM CDT on July 25, 2017 (GMT -0500)
Tyler Pounds

Weather History for KTYR - April, 2013

Change the Weather History Date:

Saturday, April 27, 2013

  Actual Average Record
Temperature  
Mean Temperature 71 °F 68 °F  
Max Temperature 80 °F 78 °F 92 °F (1987)
Min Temperature 61 °F 58 °F 41 °F (1967)
Degree Days  
Heating Degree Days 0 1  
Month to date heating degree days 132 94  
Since 1 July heating degree days 1970 2259  
Cooling Degree Days 6 4  
Month to date cooling degree days 76 65  
Year to date cooling degree days 99 98  
Growing Degree Days 21 (Base 50)    
Moisture  
Dew Point 62 °F    
Average Humidity 72    
Maximum Humidity 84    
Minimum Humidity 60    
Precipitation  
Precipitation 0.00 in 0.12 in 2.67 in (1958)
Month to date precipitation 2.21 2.78  
Year to date precipitation 10.56 13.77  
Snow  
Snow 0.00 in - - ()
Month to date snowfall 0.0  
Since 1 July snowfall 1.0  
Snow Depth 0.00 in    
Sea Level Pressure  
Sea Level Pressure 30.04 in    
Wind  
Wind Speed 9 mph (SW)    
Max Wind Speed 18 mph    
Max Gust Speed 23 mph    
Visibility 10 miles    
Events      
T = Trace of Precipitation, MM = Missing Value Source: NWS Daily Summary

Daily Weather History Graph

Daily Weather History Graph

Search for Another Location

Airport or City:

Trip Planner

Search our weather history database for the weather conditions in past years. The results will help you decide how hot, cold, wet, or windy it might be!

Date:

Astronomy

Apr. 27, 2013 Rise Set
Actual Time 6:38 AM CDT 8:00 PM CDT
Civil Twilight 6:12 AM CDT 8:25 PM CDT
Nautical Twilight 5:42 AM CDT 8:56 PM CDT
Astronomical Twilight 5:10 AM CDT 9:29 PM CDT
Moon 10:24 PM CDT (4/27) 8:03 AM CDT (4/27)
Length of Visible Light 14h 12m
Length of Day
13h 21m
Waning Gibbous, 95% of the Moon is Illuminated
Apr 27
Waning Gibbous
May 2
Last Quarter
May 9
New
May 17
First Quarter
May 24
Full

Hourly Weather History & Observations

Time (CDT) Temp. Dew Point Humidity Pressure Visibility Wind Dir Wind Speed Gust Speed Precip Events Conditions
12:23 AM 71.6 °F 62.6 °F 73% 30.08 in 10.0 mi South 12.7 mph - N/A   Mostly Cloudy
12:53 AM 71.1 °F 64.0 °F 78% 30.06 in 10.0 mi South 13.8 mph - N/A   Mostly Cloudy
1:20 AM 69.8 °F 64.4 °F 83% 30.07 in 10.0 mi South 11.5 mph - N/A   Scattered Clouds
1:38 AM 69.8 °F 62.6 °F 78% 30.07 in 10.0 mi South 10.4 mph 19.6 mph N/A   Mostly Cloudy
1:53 AM 70.0 °F 63.0 °F 78% 30.05 in 10.0 mi South 15.0 mph 19.6 mph N/A   Mostly Cloudy
2:14 AM 69.8 °F 62.6 °F 78% 30.05 in 10.0 mi South 13.8 mph - N/A   Scattered Clouds
2:53 AM 68.0 °F 63.0 °F 84% 30.02 in 10.0 mi South 11.5 mph 20.7 mph N/A   Partly Cloudy
3:53 AM 68.0 °F 62.1 °F 81% 30.03 in 10.0 mi South 12.7 mph - N/A   Mostly Cloudy
4:53 AM 68.0 °F 62.1 °F 81% 30.06 in 10.0 mi SW 8.1 mph - N/A   Overcast
5:53 AM 68.0 °F 62.1 °F 81% 30.04 in 10.0 mi SSW 10.4 mph - N/A   Overcast
6:53 AM 68.0 °F 62.1 °F 81% 30.04 in 10.0 mi South 11.5 mph - N/A   Overcast
7:16 AM 68.0 °F 62.6 °F 83% 30.06 in 10.0 mi South 10.4 mph 17.3 mph N/A   Overcast
7:35 AM 68.0 °F 62.6 °F 83% 30.08 in 10.0 mi SSW 9.2 mph - N/A   Overcast
7:49 AM 68.0 °F 62.6 °F 83% 30.07 in 10.0 mi South 10.4 mph - N/A   Overcast
7:53 AM 68.0 °F 63.0 °F 84% 30.06 in 10.0 mi South 12.7 mph - N/A   Overcast
8:53 AM 70.0 °F 64.0 °F 81% 30.05 in 10.0 mi SSW 16.1 mph 23.0 mph N/A   Overcast
9:53 AM 71.1 °F 64.0 °F 78% 30.06 in 10.0 mi SSW 12.7 mph - N/A   Overcast
10:53 AM 73.0 °F 64.9 °F 76% 30.06 in 10.0 mi SW 6.9 mph - N/A   Overcast
11:14 AM 73.4 °F 66.2 °F 78% 30.08 in 10.0 mi WSW 9.2 mph - N/A   Overcast
11:53 AM 73.9 °F 66.0 °F 76% 30.07 in 10.0 mi WSW 8.1 mph - N/A   Overcast
12:53 PM 75.9 °F 66.0 °F 71% 30.06 in 10.0 mi WSW 9.2 mph - N/A   Overcast
1:05 PM 77.0 °F 66.2 °F 69% 30.08 in 10.0 mi West 10.4 mph - N/A   Overcast
1:53 PM 78.1 °F 64.9 °F 64% 30.05 in 10.0 mi West 12.7 mph 19.6 mph N/A   Partly Cloudy
2:53 PM 79.0 °F 64.0 °F 60% 30.02 in 10.0 mi WNW 9.2 mph - N/A   Mostly Cloudy
3:53 PM 77.0 °F 63.0 °F 62% 30.01 in 10.0 mi NW 8.1 mph - N/A   Mostly Cloudy
4:53 PM 77.0 °F 62.1 °F 60% 30.00 in 10.0 mi WNW 9.2 mph - N/A   Clear
5:53 PM 75.0 °F 61.0 °F 62% 30.00 in 10.0 mi NW 8.1 mph - N/A   Clear
6:53 PM 73.9 °F 60.1 °F 62% 29.99 in 10.0 mi NW 5.8 mph - N/A   Clear
7:53 PM 71.1 °F 59.0 °F 66% 29.98 in 10.0 mi North 9.2 mph - N/A   Clear
8:53 PM 66.0 °F 57.0 °F 73% 29.99 in 10.0 mi North 5.8 mph - N/A   Clear
9:53 PM 64.0 °F 55.9 °F 75% 30.02 in 10.0 mi Calm Calm - N/A   Clear
10:53 PM 63.0 °F 57.0 °F 81% 30.03 in 10.0 mi Calm Calm - N/A   Mostly Cloudy
11:53 PM 62.1 °F 57.0 °F 84% 30.04 in 10.0 mi ENE 3.5 mph - N/A   Mostly Cloudy